{"data":{"norad_id":45671,"intl_designator":"2020-035Q","name":"STARLINK-1454","alt_names":[],"object_type":"PAYLOAD","status":"ACTIVE","operator":null,"country":"US","launch_date":"2020-06-04","launch_site_code":"AFETR","launch_vehicle":null,"mission":null,"orbit_class":"UNKNOWN","rcs_meters":null,"size_class":null,"mass_kg":null,"dimensions":null,"purposes":["comms"],"wikipedia_slug":null,"has_3d_model":false,"image_url":null,"decayed_at":null,"tle_current":{"epoch":"2026-09-20T06:00:02.000160Z","epoch_age_seconds":39827,"freshness":"FRESH","line1":"1 45671U 20035Q   26263.25002315  .00219804  29090-4  66666-3 0  9991","line2":"2 45671  53.0338 170.8562 0004946 103.6405 336.0155 15.91683768  6078","mean_motion":15.91683768,"eccentricity":0.0004946,"inclination_deg":53.0338,"raan_deg":170.8562,"arg_perigee_deg":103.6405,"mean_anomaly_deg":336.0155,"bstar":0.00066666,"rev_number":607,"period_min":90.470232149782,"perigee_km":294.2689540353,"apogee_km":300.8725641506,"semimajor_km":6675.7077590929,"source":"CELESTRAK","updated_at":"2026-09-20T09:00:38.451155Z"}}}